Regional Weather Roundup
Issued by NWS

Home | Current Version | Previous Version | Graphics & Text | Print | Product List | Glossary On
Versions: 1 2 3 4 5 6 7 8 9 10 11 12 13 14 15 16 17 18 19 20 21 22 23 24 25 26 27 28 29 30 31 32 33 34 35 36 37 38 39 40 41 42 43 44 45 46 47 48 49 50
000
ASUS43 KFSD 180402
RWRSD

WEATHER ROUNDUP FOR SOUTH DAKOTA
NATIONAL WEATHER SERVICE SIOUX FALLS SD
1100 PM CDT TUE OCT 17 2017

NOTE: "FAIR" INDICATES FEW OR NO CLOUDS BELOW 12,000 FEET WITH NO
SIGNIFICANT WEATHER AND/OR OBSTRUCTIONS TO VISIBILITY.


SDZ001>005-009-010-012>017-180500-
NORTHWEST AND NORTH CENTRAL SOUTH DAKOTA

CITY           SKY/WX    TMP DP  RH WIND       PRES   REMARKS
BUFFALO          N/A     58  25  28 S9        29.68F
FAITH            N/A     54  28  36 S12       29.76F
MOBRIDGE       CLOUDY    52  42  69 SE8       29.71F
$$

SDZ012>016-024>037-041>051-057-063-072>074-180500-
SOUTHWEST AND SOUTH CENTRAL SOUTH DAKOTA

CITY           SKY/WX    TMP DP  RH WIND       PRES   REMARKS
RAPID CTY ARPT CLOUDY    47  25  42 NW8       29.82F
PIERRE         CLOUDY    45  37  73 CALM      29.75F
CUSTER         CLOUDY    54  15  21 W9        29.96F
ELLSWORTH AFB  CLOUDY    54  23  30 W5        29.81F
PHILIP         CLEAR     52  32  46 W6        29.77F
PINE RIDGE     CLEAR     42  28  57 W5        29.88S
SPEARFISH      FAIR      70  16  12 SW18G30   29.82F
WINNER         FAIR      59  33  37 S14       29.82F
$$

SDZ004>011-016>023-039-040-180500-
NORTHEAST SOUTH DAKOTA

CITY           SKY/WX    TMP DP  RH WIND       PRES   REMARKS
ABERDEEN       CLEAR     47  41  80 S10       29.75F
WATERTOWN      CLEAR     54  40  59 S10       29.83F
BROOKINGS      CLEAR     57  42  57 S12       29.88S
SISSETON         N/A     65  40  39 S9        29.75F
$$

SDZ017-020-022-023-036>040-048>070-180500-
SOUTHEAST SOUTH DAKOTA

CITY           SKY/WX    TMP DP  RH WIND       PRES   REMARKS
SIOUX FALLS    CLEAR     60  47  61 S13       29.90F
HURON          CLEAR     58  41  53 S10       29.80F
MITCHELL       CLEAR     60  40  47 S14       29.84F
YANKTON        CLEAR     60  44  55 S10       29.90F
$$

ABBREVIATIONS USED IN REMARKS
   TC - TEMPERATURE IN CELSIUS
  WCI - WIND CHILL INDEX
   HX - HEAT INDEX
  VSB - VISIBILITY





USA.gov is the U.S. government's official web portal to all federal, state and local government web resources and services.